Regional Weather Roundup
Issued by NWS Upton, NY

Current Version | Previous Version | Graphics & Text | Print | Product List | Glossary Off
Versions: 1 2 3 4 5 6 7 8 9 10 11 12 13 14 15 16 17 18 19 20 21 22 23 24 25 26 27 28 29 30 31 32 33 34 35 36 37 38 39 40 41 42 43 44 45 46 47 48 49 50
478 ASUS41 KOKX 131604 RWROKX REGIONAL WEATHER ROUNDUP NATIONAL WEATHER SERVICE NEW YORK NY 1100 AM EST SAT FEB 13 2016 NOTE: "FAIR" INDICATES FEW OR NO CLOUDS BELOW 12,000 FEET WITH NO SIGNIFICANT WEATHER AND/OR OBSTRUCTIONS TO VISIBILITY. NYZ071-072-176-178-NJZ106-104-131700- NEW YORK CITY METRO AREA CITY SKY/WX TMP DP RH WIND PRES REMARKS CENTRAL PARK MOSUNNY 20 -6 31 W16G32 30.05R WCI 6 LAGUARDIA APRT PTSUNNY 23 1 38 NW26G36 30.04R WCI 6 KENNEDY INTL PTSUNNY 24 -6 26 NW32G39 30.04R WCI 6 NEWARK/LIBERTY MOSUNNY 23 -4 30 NW25G38 30.06R WCI 7 BRNX BOT. GARD N/A 23 -6 28 W26 30.04R WCI 6 TETERBORO SUNNY 21 -10 25 NW20G36 30.04R WCI 6 $$ NYZ177-179-078>081-131700- LONG ISLAND NEW YORK CITY SKY/WX TMP DP RH WIND PRES REMARKS FARMINGDALE SUNNY 23 -4 30 NW17G30 30.00R WCI 9 ISLIP MOSUNNY 22 -2 35 W29G44 29.97R WCI 4 SHIRLEY PTSUNNY 23 2 40 NW23G35 29.97R WCI 7 RIVERHEAD N/A 27 -8 22 W14 29.92S WCI 15 WESTHAMPTON PTSUNNY 22 1 40 W24G33 29.95R WCI 5 EAST HAMPTON PTSUNNY 23 3 42 NW23G29 29.92R WCI 7 MONTAUK POINT N/A 24 6 46 NW15G28 29.92R WCI 11 $$ NYZ052-065-067-131700- HUDSON VALLEY CITY SKY/WX TMP DP RH WIND PRES REMARKS WHITE PLAINS MOSUNNY 19 -7 31 NW32G40 29.98R WCI -1 NEWBURGH MOSUNNY 16 -6 38 NW24G38 30.02R WCI -3 MONTGOMERY SUNNY 15 -9 33 NW23G41 30.03R WCI -3 POUGHKEEPSIE SUNNY 19 -9 28 W24G33 30.02R WCI 2 ALBANY MOSUNNY 9 -10 42 W26G40 30.07R WCI -13 $$ NJZ001-105-106-008-010-013-015-019>022-104-131700- NEW JERSEY CITY SKY/WX TMP DP RH WIND PRES REMARKS NEWARK/LIBERTY MOSUNNY 23 -4 30 NW25G38 30.06R WCI 7 TETERBORO SUNNY 21 -10 25 NW20G36 30.04R WCI 6 CALDWELL MOSUNNY 20 -10 26 NW18G26 30.06R WCI 5 MORRISTOWN NOT AVBL SOMERVILLE CLOUDY 18 2 49 N16G31 30.08R WCI 3 SUSSEX CLOUDY 15 -5 40 W14G23 30.05R WCI 0 ANDOVER N/A 14 -4 44 N12G21 30.05R WCI 0 TRENTON PTSUNNY 22 -6 29 NW22G32 30.09R WCI 6 MILLVILLE CLOUDY 23 -1 35 NW17G30 30.14R WCI 9 ATLANTIC CITY PTSUNNY 25 -4 28 W25G36 30.10R WCI 9 WRIGHTSTOWN MOSUNNY 23 -7 26 NW21G32 30.05R WCI 8 TOMS RIVER SUNNY 25 -8 24 NW25G37 30.07R WCI 9 BELMAR PTSUNNY 25 -6 26 NW24G30 30.04R WCI 9 $$ PAZ047>061-062-071-131700- EASTERN PENNSYLVANIA CITY SKY/WX TMP DP RH WIND PRES REMARKS PHILADELPHIA PTSUNNY 21 1 41 W22G31 30.15R WCI 5 ALLENTOWN CLOUDY 17 -1 45 NW23G32 30.10R WCI -1 SCRANTON CLOUDY 10 -7 46 NW20G33 30.09R WCI -9 $$ CTZ002-004>006-009-010-012-RIZ004-006-007-MAZ004-011-015-131700- SOUTHERN NEW ENGLAND IN CT CITY SKY/WX TMP DP RH WIND PRES REMARKS BRADLEY INTL PTSUNNY 16 -2 45 NW22G29 29.93R WCI -2 HARTFORD CLOUDY 20 -2 38 NW16G25 29.96R WCI 6 DANBURY PTSUNNY 18 -7 32 NW16G28 29.98R WCI 3 WTRBRY/OXFORD PTSUNNY 18 -8 32 NW12G23 29.92R WCI 5 BRIDGEPORT CLOUDY 20 3 48 NW23G36 29.97R WCI 3 MERIDEN PTSUNNY 20 -1 40 NW17G24 29.95R WCI 5 NEW HAVEN PTSUNNY 21 0 39 NW16G29 29.95R WCI 7 CHESTER FLURRIES 21 0 39 NW17G33 29.90S WCI 7 GROTON PTSUNNY 21 5 50 N18G31 29.91R WCI 6 WILLIMANTIC MOSUNNY 21 -5 31 NW18G28 29.92R WCI 6 IN RI CITY SKY/WX TMP DP RH WIND PRES REMARKS PROVIDENCE PTSUNNY 22 -1 36 NW18G30 29.87R WCI 7 BLOCK ISLAND MOSUNNY 25 5 42 NW15G26 29.87R WCI 12 WESTERLY SUNNY 24 1 36 NW14G21 29.90R WCI 12 IN MA CITY SKY/WX TMP DP RH WIND PRES REMARKS BOSTON PTSUNNY 23 1 38 W22G30 29.83S WCI 8 WORCESTER PTSUNNY 15 -3 44 W26G35 29.79R WCI -4 WESTFIELD PTSUNNY 16 -3 43 NW17G29 29.93R WCI 0 PROVINCETOWN CLOUDY 23 14 68 NW20G29 29.80R WCI 8 NANTUCKET PTSUNNY 25 13 60 NW18G26 29.81R WCI 11 $$ ANZ330-335-338-340-345-350-353-355-131700- COASTAL MARINE OBSERVATIONS STATION/POSITION TIME SKY/WX TEMP WIND PRES VSBY WAVE AIR SEA DIR/SP/G HT/PER (UTC) (F) (DEG/KT/KT) (MB) (MI) (FT/S) NY HARB ENTRANCE 1450 24 43 290/ 25/ 33 1015.3 4/ 5 4S FIRE IS NOT AVBL 20S FIRE ISLAND 1450 25 41 310/ 27/ 35 1014.4 7/ 6 GREAT SOUTH BAY NOT AVBL 23SW MTP 1550 24 44 310/ 23/ 29 1012.6 6/ 5 HUDSON CANYON 1450 27 48 1013.4 10/ 7 KINGS POINT 1500 21 35 350/ 22/ 31 1015.8 EXECUTION ROCKS NOT AVBL CENTRAL LI SOUND 1530 24 300/ 21/ 27 N/A 3/ 4 EASTERN LI SOUND 1500 25 40 310/ 21/ 31 N/A ROBBINS REEF 1500 17 330/ 25/ 30 1015.8 $$ >>>>>>>>>>>>>>>>>>>>>>>>>>>> KEY <<<<<<<<<<<<<<<<<<<<<<<<<<< > < > SKY/WX - SKY CONDITION/PRESENT WEATHER < > TMP - TEMPERATURE IN FAHRENHEIT < > DP - DEWPOINT IN FAHRENHEIT < > RH - RELATIVE HUMIDITY IN PERCENT < > WIND - DIRECTION AND SPEED IN MPH < > PRES - MEAN SEA LEVEL PRESSURE IN INCHES OF HG < > WCI - WIND CHILL INDEX < > VSB - VISIBILITY IN MILES < > HX - HEAT INDEX < > TC - TEMPERATURE IN CELSIUS < > VRB - VARIABLE WIND DIRECTION < > < >>>>>>>>>>>>>>>>>>>>>>>>>>>> KEY <<<<<<<<<<<<<<<<<<<<<<<<<<<

USA.gov is the U.S. government's official web portal to all federal, state and local government web resources and services.